Terug naar catalogus

SL-8 R/B

ActiefLEO
NORAD 10591·ROCKET BODY·🇷🇺 Russia

Gelanceerd Jan 10, 1978 vanaf Plesetsk Cosmodrome

Loading…

Volgende Passages (komende 24 uur)

TLE

VersSource: Space-Track

Epoch: Sep 14, 2026, 12:29 UTC

1 10591U 78005J   26257.52061637 -.00000073  00000-0 -52900-3 0  9999
2 10591  74.0326 284.8821 0144634  40.8377 126.9933 12.23349460744253

Volg SL-8 R/B in realtime met AllMySat

Download on the App Store